TimePST,TemperatureF,Dew PointF,Humidity,Sea Level PressureIn,VisibilityMPH,Wind Direction,Wind SpeedMPH,Gust SpeedMPH,PrecipitationIn,Events,Conditions,WindDirDegrees,DateUTC
12:00 AM,45.3,43.3,93,30.07,-9999.0,SSE,25.3,-,N/A,,Unknown,160,2012-12-30 08:00:00
1:00 AM,45.3,43.7,94,30.07,-9999.0,SSE,26.5,-,N/A,,Unknown,160,2012-12-30 09:00:00
2:00 AM,45.3,43.3,93,30.07,-9999.0,SSE,24.2,-,N/A,,Unknown,160,2012-12-30 10:00:00
3:00 AM,45.1,43.9,95,30.06,-9999.0,SSE,25.3,-,N/A,,Unknown,160,2012-12-30 11:00:00
4:00 AM,45,44,94,30.04,,South,31.1,,,,,170,2012-12-30 12:00:00
4:00 AM,45.3,43.9,95,30.04,-9999.0,South,31.1,-,N/A,,Unknown,170,2012-12-30 12:00:00
5:00 AM,45.5,44.1,95,30.05,-9999.0,South,28.8,-,N/A,,Unknown,170,2012-12-30 13:00:00
6:00 AM,45.7,43.5,92,30.04,-9999.0,SSE,33.4,-,N/A,,Unknown,160,2012-12-30 14:00:00
7:00 AM,45.7,43.2,91,30.00,-9999.0,SSE,34.5,-,N/A,,Unknown,160,2012-12-30 15:00:00
8:00 AM,45.7,43.2,91,29.99,-9999.0,SSE,35.7,-,N/A,,Unknown,160,2012-12-30 16:00:00
9:00 AM,45.7,43.3,92,29.98,-9999.0,SSE,34.5,-,N/A,,Unknown,160,2012-12-30 17:00:00
10:00 AM,46,43,85,29.96,,SSE,42.6,,,,,160,2012-12-30 18:00:00
10:00 AM,45.9,43.0,90,29.96,-9999.0,SSE,42.6,-,N/A,,Unknown,160,2012-12-30 18:00:00
11:00 AM,46.0,43.3,90,29.97,-9999.0,SSE,36.8,-,N/A,,Unknown,160,2012-12-30 19:00:00
12:00 PM,45.9,43.2,90,29.96,-9999.0,SSE,38.0,-,N/A,,Unknown,160,2012-12-30 20:00:00
1:00 PM,46.0,43.0,89,29.93,-9999.0,SSE,39.1,-,N/A,,Unknown,160,2012-12-30 21:00:00
2:00 PM,44.6,42.4,92,29.90,-9999.0,SSE,41.4,-,N/A,,Unknown,160,2012-12-30 22:00:00
3:00 PM,44.8,42.3,91,29.87,-9999.0,SSE,42.6,-,N/A,,Unknown,160,2012-12-30 23:00:00
4:00 PM,45,43,91,29.83,,SSE,44.9,,,,,160,2012-12-31 00:00:00
4:00 PM,45.1,43.2,93,29.83,-9999.0,SSE,44.9,-,N/A,,Unknown,160,2012-12-31 00:00:00
5:00 PM,46.0,43.0,89,29.81,-9999.0,SSE,51.8,-,N/A,,Unknown,160,2012-12-31 01:00:00
6:00 PM,45.7,43.2,91,29.78,-9999.0,SSE,46.0,-,N/A,,Unknown,160,2012-12-31 02:00:00
7:00 PM,45.5,43.3,92,29.74,-9999.0,SSE,50.6,-,N/A,,Unknown,160,2012-12-31 03:00:00
8:00 PM,45.7,43.9,93,29.74,-9999.0,SSE,48.3,-,N/A,,Unknown,160,2012-12-31 04:00:00
9:00 PM,45.9,44.2,94,29.70,-9999.0,SSE,48.3,-,N/A,,Unknown,160,2012-12-31 05:00:00
10:00 PM,47,44,84,29.70,,South,39.1,,,,,170,2012-12-31 06:00:00
10:00 PM,46.8,43.7,89,29.70,-9999.0,South,39.1,-,N/A,,Unknown,170,2012-12-31 06:00:00
11:00 PM,46.6,42.6,86,29.74,-9999.0,South,26.5,-,N/A,,Unknown,170,2012-12-31 07:00:00